User: anonymous   Login
Location: Caltech
(34.1382°N, 118.1253°W)
Time: 20:55:52
(UTC-08:00)
Language:

Cosmos 2219 - Orbit

View from above orbital plane
View from above orbital plane
View from above satellite
View from above satellite

Ground track
Ground track

The orbit data is extracted from the following two-line orbital elements,

1 22219U 92076A   14355.04271338  .00000427  00000-0  25156-3 0  6819
2 22219 071.0614 296.6869 0019112 331.8673 101.5304 14.13510751139744
Epoch (UTC): 21 December 2014 01:01:30
Eccentricity: 0.0019112
inclination: 71.0614°
perigee height: 833 km
apogee height: 861 km
right ascension of ascending node: 296.6869°
argument of perigee: 331.8673°
revolutions per day: 14.13510751
mean anomaly at epoch: 101.5304°
orbit number at epoch: 13974

The dashed part of the orbit path shows where the satellite is in the earth's shadow,  

DLR